Regional Weather Roundup
Issued by NWS Sterling, VA

Home | Current Version | Previous Version | Graphics & Text | Print | Product List | Glossary On
Versions: 1 2 3 4 5 6 7 8 9 10 11 12 13 14 15 16 17 18 19 20 21 22 23 24 25 26 27 28 29 30 31 32 33 34 35 36 37 38 39 40 41 42 43 44 45 46 47 48 49 50
000
ASUS41 KLWX 270810
RWRLWX

REGIONAL WEATHER ROUNDUP
NATIONAL WEATHER SERVICE BALTIMORE MD/WASHINGTON DC
300 AM EST THU NOV 27 2014

Note: "FAIR" indicates few or no clouds below 12,000 feet
with no significant weather and/or obstructions to visibility.
 TC=TEMPERATURE CELSIUS

 * =Non NWS site. Station does not report precipitation (e.g. rain,
    snow, etc.), thunder, or fog.

DCZ001-MDZ009-015-VAZ040>042-051-053>054-270900-
WASHINGTON METRO

CITY           SKY/WX    TMP DP  RH WIND       PRES   REMARKS
WASHINGTON NAT MOCLDY    39  32  76 NW5       30.03F
DULLES         CLOUDY    34  33  96 CALM      30.02S
ANDREWS AFB    MOCLDY    36  33  88 NW8       30.00F
FT BELVOIR     CLOUDY    34  32  93 CALM      30.03S FOG
QUANTICO       CLOUDY    36  33  89 W3        30.04S
COLLEGE PARK*  MOCLDY    36  32  87 NW5       30.02S
LEESBURG*      CLOUDY    34  34 100 CALM      30.03R FOG
MANASSAS*      CLOUDY    34  34 100 CALM      30.03R
GAITHERSBURG*  PTCLDY    34  30  86 W5        30.04F

$$

MDZ006>007-011-014-270900-
BALTIMORE METRO

CITY           SKY/WX    TMP DP  RH WIND       PRES   REMARKS
BWI AIRPORT    MOCLDY    34  31  88 NW6       30.00S
MD SCIENCE CTR   N/A     36  32  85 MISG      30.02R
MARTIN STATE   CLOUDY    36  34  93 W3        30.03R
ANNAPOLIS      MOCLDY    36  33  89 NW6       30.01S
FORT MEADE*    PTCLDY    32  32 100 CALM      30.04R

$$

MDZ012-015-019>023-270900-
MARYLAND EASTERN SHORE

CITY           SKY/WX    TMP DP  RH WIND       PRES   REMARKS
OCEAN CITY     PTCLDY    37  34  89 NW8       30.00R
SALISBURY      MOCLDY    39  34  82 NW6       30.01S
BAY BRIDGE AP*   N/A     36  32  87 W8        30.02R
CAMBRIDGE*     CLEAR     37  34  87 W5        30.01S
EASTON*        CLEAR     37  37 100 NW5       30.04F

$$

MDZ017>025-270900-
SOUTHERN MARYLAND

CITY           SKY/WX    TMP DP  RH WIND       PRES   REMARKS
PATUXENT RIVER PTCLDY    37  33  85 W7        30.02R
ST INIGOES     PTCLDY    38  33  82 NW6       30.03R
LEONARDTOWN*   PTCLDY    36  32  87 W3        30.04S

$$

MDZ003>005-270900-
NORTH CENTRAL MARYLAND

CITY           SKY/WX    TMP DP  RH WIND       PRES   REMARKS
FREDERICK*     CLOUDY    36  32  87 NE5       30.02F
HAGERSTOWN APT CLOUDY    34  30  85 SE6       29.99F
WESTMINSTER*   CLOUDY    34  30  86 W3        29.99R

$$

MDZ501>502-270900-
WESTERN MARYLAND

CITY           SKY/WX    TMP DP  RH WIND       PRES   REMARKS
OAKLAND*       CLOUDY    28 N/A N/A CALM      29.91R FOG
CUMBERLAND*    CLOUDY    32  32 100 S3        30.04R VSB 1/2

$$

VAZ025>031-270900-
SHENANDOAH VALLEY

CITY           SKY/WX    TMP DP  RH WIND       PRES   REMARKS
WINCHESTER*    FOG       34  32  93 CALM      30.00R VSB 1
FRONT ROYAL*   CLOUDY    32  32 100 CALM      30.00R
LURAY*         FOG       32  32 100 CALM      30.00R VSB 1/4
NEW MARKET*    CLOUDY    29  29 100 CALM      29.99R VSB 1/4
STAUNTON*      FOG       30  28  94 CALM      30.01R VSB 1/4
WAYNESBORO*    CLOUDY    29  29 100 CALM      29.98S VSB 3/4

$$

WVZ021-048>050-054>055-270900-
EASTERN WEST VIRGINIA PANHANDLE

CITY           SKY/WX    TMP DP  RH WIND       PRES   REMARKS
MARTINSBURG    CLOUDY    35  31  85 CALM      30.01S
PETERSBURG*    FOG       31  30  98 CALM      30.01R VSB 1/4

$$

VAZ036>039-050-270900-
CENTRAL FOOTHILLS

CITY           SKY/WX    TMP DP  RH WIND       PRES   REMARKS
CHARLOTTESVILL PTCLDY    35  33  92 W3        30.00S FOG
CULPEPER*      CLOUDY    34  34 100 CALM      30.02F FOG
ORANGE*        FOG       34  34 100 CALM      30.03R VSB 1
GORDONSVILLE*  FOG       32  32  99 CALM      30.01R VSB 1/4
WARRENTON*     CLOUDY    33  33 100 CALM      30.01F FOG

$$

VAZ055>057-270900-
NORTH AND CENTRAL PIEDMONT

CITY           SKY/WX    TMP DP  RH WIND       PRES   REMARKS
FREDERICKSBRG* CLOUDY    35  35 100 CALM      30.03R
STAFFORD*      CLOUDY    32  32 100 CALM      30.07S FOG

$$

NCZ024-NYZ072-PAZ021-071-VAZ022-071-270900-
OTHER REGIONAL OBSERVATIONS

CITY           SKY/WX    TMP DP  RH WIND       PRES   REMARKS
NEW YORK CITY  CLOUDY    36  29  75 NW5       29.92R
PHILADELPHIA   CLOUDY    37  31  78 W8        29.97R
PITTSBURGH     CLOUDY    32  31  96 CALM      29.99R FOG
ROANOKE        CLOUDY    35  34  96 CALM      30.01F
RICHMOND       CLOUDY    38  35  89 CALM      30.05R
RALEIGH        MOCLDY    40  38  93 CALM      30.05F

$$

ANZ530>537-270900-
MARINE OBSERVATIONS

STATION/POSITION TIME  TEMP    WIND        PRES
                       AIR SEA DIR/SP/G
                 (UTC) (F)     (DEG/KT/KT) (MB)
THOMAS PT LIGHT  0800   37 47  280/ 11/ 13 1017.7R
BALT KEY BRIDGE  0800   37     270/  9/ 11 1016.3R
COVE POINT       0800   37     320/  9/ 13 1016.1F
LEWISETTA        0800   38 48  300/  5/  6 1016.7R
SOLOMONS ISLAND  0800      49                N/A
PINEY POINT      0800          330/ 15/ 18   N/A

$$



USA.gov is the U.S. government's official web portal to all federal, state and local government web resources and services.